Voltar ao catálogo

THORAD AGENA D DEB

AtivoSSO
NORAD 5067·DEBRIS·🇺🇸 United States

Lançado Apr 8, 1970 de Vandenberg Space Force Base

Loading…

Próximas Passagens

TLE

Source: Space-Track
1  5067U 70025JM  26224.24364976  .00000191  00000-0  29288-3 0  9992
2  5067  99.9925 120.8917 0006755  96.4686  24.5235 13.65360259792978

Acompanhe THORAD AGENA D DEB em tempo real com AllMySat

Download on the App Store